Weather History for KACK - September, 2013

Change the Weather History Date:

Friday, September 20, 2013

  Actual Average Record
Temperature  
Mean Temperature 62 °F -  
Max Temperature 72 °F 67 °F 78 °F (1971)
Min Temperature 53 °F 52 °F 42 °F (1969)
Degree Days  
Heating Degree Days 3    
Growing Degree Days 12 (Base 50)    
Moisture  
Dew Point 58 °F    
Average Humidity 91    
Maximum Humidity 100    
Minimum Humidity 68    
Precipitation  
Precipitation 0.01 in - - ()
Sea Level Pressure  
Sea Level Pressure 30.07 in    
Wind  
Wind Speed 5 mph (WSW)    
Max Wind Speed 10 mph    
Max Gust Speed -    
Visibility 9 miles    
Events Fog    
Averages and records for this station are not official NWS values.
T = Trace of Precipitation, MM = Missing Value Source: NWS Daily Summary

Daily Weather History Graph

Daily Weather History Graph

Search for Another Location

Airport or City:

Trip Planner

Search our weather history database for the weather conditions in past years. The results will help you decide how hot, cold, wet, or windy it might be!

Date:

Astronomy

Sep. 20, 2013 Rise Set
Actual Time 6:25 AM EDT 6:40 PM EDT
Civil Twilight 5:58 AM EDT 7:08 PM EDT
Nautical Twilight 5:25 AM EDT 7:40 PM EDT
Astronomical Twilight 4:52 AM EDT 8:13 PM EDT
Moon 7:10 PM EDT (9/20) 7:38 AM EDT (9/20)
Length of Visible Light 13h 09m
Length of Day
12h 14m
Full, 98% of the Moon is Illuminated
Sep 20
Full
Sep 26
Last Quarter
Oct 4
New
Oct 11
First Quarter
Oct 18
Full

Hourly Weather History & Observations

Time (EDT) Temp. Dew Point Humidity Pressure Visibility Wind Dir Wind Speed Gust Speed Precip Events Conditions
12:53 AM 59.0 °F 55.9 °F 90% 30.08 in 10.0 mi West 3.5 mph - N/A   Clear
1:53 AM 57.9 °F 55.9 °F 93% 30.07 in 10.0 mi WNW 4.6 mph - N/A   Clear
2:53 AM 57.9 °F 57.0 °F 97% 30.06 in 10.0 mi West 3.5 mph - N/A   Clear
3:53 AM 55.9 °F 55.0 °F 97% 30.06 in 9.0 mi West 4.6 mph - N/A   Clear
4:06 AM 55.4 °F 53.6 °F 94% 30.06 in 2.0 mi West 4.6 mph - N/A   Clear
4:15 AM 55.4 °F 55.4 °F 100% 30.07 in 8.0 mi West 4.6 mph - N/A   Clear
4:32 AM 55.4 °F 55.4 °F 100% 30.07 in 2.5 mi West 4.6 mph - N/A   Clear
4:39 AM 57.2 °F 55.4 °F 94% 30.07 in 5.0 mi West 4.6 mph - N/A   Clear
4:53 AM 57.0 °F 55.9 °F 96% 30.07 in 9.0 mi West 4.6 mph - N/A   Clear
5:00 AM 53.6 °F 53.6 °F 100% 30.07 in 1.5 mi West 5.8 mph - N/A   Clear
5:10 AM 55.4 °F 55.4 °F 100% 30.07 in 3.0 mi West 6.9 mph - N/A   Clear
5:53 AM 57.0 °F 55.9 °F 96% 30.08 in 8.0 mi West 4.6 mph - N/A   Clear
6:53 AM 57.0 °F 55.9 °F 96% 30.08 in 10.0 mi WSW 6.9 mph - 0.01 in   Clear
7:53 AM 63.0 °F 62.1 °F 97% 30.07 in 10.0 mi SW 6.9 mph - N/A   Scattered Clouds
8:53 AM 64.0 °F 62.1 °F 93% 30.09 in 10.0 mi West 9.2 mph - N/A   Scattered Clouds
9:53 AM 66.9 °F 61.0 °F 81% 30.10 in 10.0 mi West 8.1 mph - N/A   Partly Cloudy
10:53 AM 69.1 °F 62.1 °F 78% 30.10 in 10.0 mi WSW 10.4 mph - N/A   Partly Cloudy
11:53 AM 70.0 °F 61.0 °F 73% 30.10 in 10.0 mi SW 9.2 mph - N/A   Clear
12:53 PM 71.1 °F 62.1 °F 73% 30.08 in 10.0 mi SW 10.4 mph - N/A   Clear
1:53 PM 70.0 °F 61.0 °F 73% 30.07 in 10.0 mi SW 9.2 mph - N/A   Clear
2:53 PM 69.1 °F 60.1 °F 73% 30.06 in 10.0 mi WSW 10.4 mph - N/A   Clear
3:53 PM 69.1 °F 57.9 °F 68% 30.05 in 10.0 mi SW 9.2 mph - N/A   Clear
4:53 PM 66.0 °F 61.0 °F 84% 30.04 in 10.0 mi SW 8.1 mph - N/A   Clear
5:53 PM 64.9 °F 61.0 °F 87% 30.05 in 10.0 mi SW 6.9 mph - N/A   Clear
6:53 PM 61.0 °F 59.0 °F 93% 30.06 in 8.0 mi SW 3.5 mph - N/A   Clear
7:53 PM 57.0 °F 55.9 °F 96% 30.06 in 10.0 mi South 5.8 mph - N/A   Clear
8:18 PM 57.2 °F 57.2 °F 100% 30.07 in 10.0 mi SSW 3.5 mph - N/A   Partly Cloudy
8:53 PM 57.0 °F 55.9 °F 96% 30.07 in 10.0 mi SSW 4.6 mph - N/A Fog Shallow Fog
9:33 PM 59.0 °F 57.2 °F 94% 30.07 in 10.0 mi Calm Calm - N/A   Partly Cloudy
9:53 PM 57.9 °F 57.0 °F 97% 30.08 in 10.0 mi Calm Calm - N/A   Scattered Clouds
10:11 PM 57.2 °F 55.4 °F 94% 30.07 in 10.0 mi SSW 5.8 mph - N/A   Mostly Cloudy
10:20 PM 57.2 °F 57.2 °F 100% 30.07 in 10.0 mi SSW 4.6 mph - N/A   Partly Cloudy
10:53 PM 57.0 °F 57.0 °F 100% 30.07 in 10.0 mi SSW 5.8 mph - N/A   Clear
11:53 PM 60.1 °F 59.0 °F 96% 30.06 in 10.0 mi South 6.9 mph - N/A   Clear